This is the latest recevied weather packets stored in our database for station/object DL6DJ-15. If no packets are shown the sender has not sent any weather packets the latest 10 day(s).
| Time | Temp. | Humidity | Pressure | Rain* | Wind** | Luminosity | Snow |
|---|---|---|---|---|---|---|---|
| 1777953634 | 10.56° C | 68% | 1010 hPa | - | - | - | - |
| 1777953334 | 10.56° C | 68% | 1010 hPa | - | - | - | - |
| 1777953034 | 10.56° C | 67% | 1010 hPa | - | - | - | - |
| 1777952733 | 10.56° C | 69% | 1009.9 hPa | - | - | - | - |
| 1777952433 | 10.56° C | 67% | 1009.9 hPa | - | - | - | - |
| 1777952132 | 10.56° C | 67% | 1009.8 hPa | - | - | - | - |
| 1777951832 | 10.56° C | 66% | 1009.9 hPa | - | - | - | - |
| 1777951532 | 11.11° C | 67% | 1010 hPa | - | - | - | - |
| 1777951231 | 10.56° C | 66% | 1010 hPa | - | - | - | - |
| 1777950931 | 10.56° C | 67% | 1010 hPa | - | - | - | - |
| 1777950630 | 11.11° C | 66% | 1010 hPa | - | - | - | - |
| 1777950330 | 11.11° C | 67% | 1010 hPa | - | - | - | - |
| 1777950030 | 11.11° C | 67% | 1010.1 hPa | - | - | - | - |
| 1777949730 | 11.11° C | 67% | 1010.2 hPa | - | - | - | - |
| 1777949429 | 11.11° C | 68% | 1010.2 hPa | - | - | - | - |
| 1777949129 | 11.11° C | 66% | 1010.2 hPa | - | - | - | - |
| 1777948828 | 11.11° C | 66% | 1010.1 hPa | - | - | - | - |
| 1777948528 | 11.67° C | 66% | 1010.3 hPa | - | - | - | - |
| 1777948228 | 11.67° C | 64% | 1010.2 hPa | - | - | - | - |
| 1777947927 | 11.67° C | 65% | 1010.3 hPa | - | - | - | - |
| 1777947627 | 12.22° C | 63% | 1010.3 hPa | - | - | - | - |
| 1777947327 | 12.78° C | 62% | 1010.4 hPa | - | - | - | - |
| 1777947026 | 12.78° C | 62% | 1010.4 hPa | - | - | - | - |
| 1777946726 | 13.33° C | 61% | 1010.4 hPa | - | - | - | - |
| 1777946426 | 13.33° C | 60% | 1010.4 hPa | - | - | - | - |
* Rain since midnight (hover to see other rain measurements)
** Current wind speed in m/s (hover to see current wind gust speed)